Regional Weather Roundup
Issued by NWS Wakefield, VA

Home | Current Version | Previous Version | Text Only | Print | Product List | Glossary Off
Versions: 1 2 3 4 5 6 7 8 9 10 11 12 13 14 15 16 17 18 19 20 21 22 23 24 25 26 27 28 29 30 31 32 33 34 35 36 37 38 39 40 41 42 43 44 45 46 47 48 49 50

000
ASUS41 KAKQ 290315
RWRAKQ

REGIONAL WEATHER ROUNDUP
NATIONAL WEATHER SERVICE WAKEFIELD VA
1100 PM EDT WED JUN 28 2017

Note: "fair" indicates few or no clouds below 12,000 feet with no
significant weather and/or obstructions to visibility. * = Denotes
station may not report precipitation (e.g., rain,snow,etc.),
thunder or fog.

VAZ042-051-052>054-056-290400-
NORTHERN VIRGINIA

CITY           SKY/WX    TMP DP  RH WIND       PRES   REMARKS
WASH NATIONAL  PTCLDY    73  59  61 S16       30.16R
DULLES         MOCLDY    68  52  56 S6        30.15S
FORT BELVOIR   CLEAR     68  57  67 CALM      30.16R
QUANTICO       CLEAR     74  62  66 S17       30.17R
FREDERICKSBRG* CLEAR     66  58  74 S7        30.16S
STAFFORD*      CLEAR     58  57  98 CALM      30.21R
WARRENTON      CLEAR     69  50  51 S5        30.17R
CULPEPER*      CLEAR     66  56  71 S3        30.17S
MANASSAS*      CLEAR     64  56  75 SW3       30.17R
LEESBURG*      CLEAR     70  57  64 S6        30.16S
WINCHESTER     PTCLDY    63  52  67 CALM      30.14F
FRONT ROYAL*   CLOUDY    66  54  63 SW3       30.14S
LURAY*         CLOUDY    68  55  64 SW6       30.16S
$$

VAZ048-049-060>072-079>083-290400-
CENTRAL AND SOUTH CENTRAL VIRGINIA

CITY           SKY/WX    TMP DP  RH WIND       PRES   REMARKS
RICHMOND       PTCLDY    67  57  70 SE9       30.19R
CHESTERFIELD*  NOT AVBL
PETERSBURG*    CLEAR     62  56  82 CALM      30.21R
HANOVER        PTCLDY    66  54  65 VRB3      30.20R
TAPPAHANNOCK*  PTCLDY    66  48  52 SE3       30.19F
QUINTON*       FAIR      66  59  77 CALM      30.20R
CHARLOTTSVILLE CLEAR     68  56  65 SW5       30.18R
GORDONSVILLE*  PTCLDY    60  57  88 CALM      30.17S
ORANGE*        CLEAR     61  54  77 CALM      30.17S
LOUISA*        PTCLDY    70  57  64 S3        30.17S
BUMPASS*       FAIR      61  57  87 S6        30.17S
FARMVILLE*     PTCLDY    65  55  68 SW3       30.18R
CREWE*         FAIR      59  56  87 CALM      30.19R
FORT PICKETT*  FAIR      64  53  68 CALM      30.20R
CHASE CITY*    FAIR      62  59  89 CALM      30.20R
CLARKSVILLE*   FAIR      63  61  94 CALM      30.19S
SOUTH HILL*    CLEAR     61  60  96 CALM      30.26R
LAWRENCEVILLE* FAIR      63  58  84 CALM      30.20S
EMPORIA*       CLEAR     61  55  82 CALM      30.22R
$$

VAZ088>098-290400-
SOUTHEAST VIRGINIA

CITY           SKY/WX    TMP DP  RH WIND       PRES   REMARKS
NORFOLK        CLEAR     69  57  65 S6        30.21R
VIRGINIA BEACH PTCLDY    66  54  65 CALM      30.21R
NORFOLK NAVAL  PTCLDY    69  56  62 S5        30.23R
WEST POINT*    PTCLDY    67  54  64 SE5       30.21S
SALUDA*        FAIR      67  58  71 S6        30.20R
NEWPORT NEWS   CLEAR     64  53  67 CALM      30.21R
LANGLEY AFB    CLEAR     69  57  65 SW3       30.21R
FORT EUSTIS    CLEAR     69  55  61 SE8       30.19R
WILLIAMSBURG*  CLEAR     73  55  53 S5        30.22R
HR EXEC AP*    FAIR      57  54  88 CALM      30.21R
FRANKLIN*      CLEAR     66  57  72 CALM      30.22R
US460-WAKEFLD  PTCLDY    67  56  67 CALM      30.21R
$$

VAZ020-022-025-037-045-290400-
WEST CENTRAL AND SOUTHWEST VIRGINIA

CITY           SKY/WX    TMP DP  RH WIND       PRES   REMARKS
STAUNTON*      PTCLDY    62  53  73 SW5       30.20S
WAYNESBORO*    PTCLDY    62  53  72 S3        30.20R
HOT SPRINGS VA CLEAR     61  46  59 S9G16     30.28S
LYNCHBURG      CLEAR     65  55  70 S5        30.20R
DANVILLE       CLEAR     64  58  80 CALM      30.20R
SOUTH BOSTON*  FAIR      63  61  95 CALM      30.20R
MARTINSVILLE   CLEAR     61  59  93 CALM      30.23R
ROANOKE        PTCLDY    70  57  63 SE7       30.22R
BLACKSBURG     CLOUDY    68  56  65 S3        30.26R
DUBLIN*        CLEAR     67  52  57 S5        30.24S
MARION*        CLEAR     69  52  53 S8G16     30.25S
HILLSVILLE*    CLEAR     64  52  63 CALM      30.25R
RICHLANDS*     FAIR      67  55  65 S6        30.21S
WISE*          CLEAR     70  50  49 CALM      30.20F
ABINGDON*      CLEAR     67  58  73 CALM      30.20R
$$

MDZ021>025-VAZ099-100-290400-
SOUTHERN MARYLAND AND THE DELMARVA PENINSULA

CITY           SKY/WX    TMP DP  RH WIND       PRES   REMARKS
PATUXENT RIVER PTCLDY    69  56  62 S7        30.17S
BAY BRIDGE APT CLEAR     73  57  56 S9        30.16S
LEONARDTOWN    CLEAR     66  54  63 S3        30.19F
DOVER          PTCLDY    65  61  86 S6        30.16R
GEORGETOWN     PTCLDY    65  57  75 S6        30.19R
EASTON         PTCLDY    70  56  60 SW5       30.21R
CAMBRIDGE      CLEAR     66  55  68 S3        30.18R
SALISBURY      PTCLDY    63  57  81 S5        30.19R
OCEAN CITY     CLEAR     69  60  73 SW7       30.20R
WALLOPS ISLAND CLEAR     66  60  81 SW6       30.20R
ACCOMACK*      CLEAR     63  57  81 S6        30.21R
$$

NCZ012>017-030>032-290400-
NORTH CENTRAL AND EASTERN NORTH CAROLINA

CITY           SKY/WX    TMP DP  RH WIND       PRES   REMARKS
ROANOKE RAPIDS FAIR      61  59  94 CALM      30.20R
RALEIGH        PTCLDY    65  57  75 CALM      30.20R
ELIZABETH CITY PTCLDY    70  63  78 S3        30.21R
AHOSKIE*         N/A     65  61  87 CALM      30.21R
EDENTON*       PTCLDY    71  64  76 CALM      30.22R
CURRITUCK*     PTCLDY    67  61  81 CALM      30.23R
KILL DEVIL HLS PTCLDY    70  59  69 SE5       30.20S
MANTEO         PTCLDY    69  62  78 SE6       30.22R
CAPE HATTERAS  NOT AVBL
TARBORO*       NOT AVBL
GOLDSBORO      CLEAR     71  62  72 SE5       30.19R
WASHINGTON     CLEAR    N/A N/A N/A CALM      30.21R
GREENVILLE     CLEAR     72  61  68 S6        30.21R
NEW BERN       CLEAR     67  61  81 CALM      30.21R
WILMINGTON     CLEAR     73  59  61 E3        30.20R
$$

VAZ048-290400-
ELSEWHERE

CITY           SKY/WX    TMP DP  RH WIND       PRES   REMARKS
HARRISBURG PA  MOCLDY    71  51  49 SW9       30.12S
BALTIMORE      PTCLDY    70  56  61 S9        30.15R
ANNAPOLIS      CLEAR     69  57  65 S7        30.16R
ANDREWS AFB    PTCLDY    67  55  65 S9        30.16R
PHILADELPHIA   MOCLDY    71  57  61 S10       30.15S
HENDERSON NC   CLEAR     65  55  67 CALM      30.20S
GREENSBORO     PTCLDY    69  59  70 S6        30.20R
ROCKY MOUNT    CLEAR     65  59  81 CALM      30.20R
$$

VAZ100-290400-
MARINE

STATION/POSITION TIME  TEMP    WIND        PRES    WAVE   SWELL
                       AIR SEA DIR/SP/G            HT/PER HT/PER
                 (UTC) (F)     (DEG/KT/KT) (MB)    (FT/S) (FT/S)
BRANDYWINE LGT   0248          210/ 17/ 18   N/A
CAPE MAY NJ      0248   67 69  180/  7/ 10 1021.8R
LEWES DE         0248   68 70  210/  4/  6 1021.9R
15NM E FENWICK I 0250   70 69  190/ 12/ 14 1022.7R   2/ 3   2/ 9
OCEAN-CITY-INLET 0248   69 69  220/ 11/ 13 1022.7R
WACHAPREAGUE VA  0248   72 78  170/  7/ 10 1022.7R
THOMAS POINT MD  0300   74 76  200/ 21/ 23   N/A
GOOSES REEF MD   0250   74     190/ 14/ 17 1022.4R
COVE POINT MD    0248   72     200/ 11/ 12 1022.4R
SOLOMONS ISLAND  0248   72 78  190/  9/ 11   N/A
BISHOPS HEAD MD  0248   74 80  180/ 11/ 12 1021.9R
PINEY POINT MD   0248          200/ 13/ 16   N/A
POTOMAC MD       0250   73     220/ 14/ 16 1021.6R
CAMBRIDGE MD     0242   69 81              1022.5R
LEWISETTA VA     0248   70 79  210/  9/ 11 1022.2R
RAPPAHANNOCK LGT 0248          170/ 14/ 16 1023.3R
STINGRAY PT      0250   75     200/ 14/ 17 1022.2R
YORK RVR RNG VA  0248   74     180/ 13/ 15 1023.1R
YORKTOWN VA      0248   71 79  190/  6/  9 1022.5R
JAMESTOWN VA     0250   72     150/ 10/ 14   N/A
DOMINION TERM VA 0248   72     150/ 10/ 11 1023.1R
KIPTOPEKE VA     0248      75  160/  8/ 10   N/A
CHES BAY BRIDGE  0248   72 76  180/ 10/ 12 1022.8R
CAPE HENRY VA    0248   70     160/  7/  8   N/A
WILLOUBY STN VA  0248   71     170/  8/  9 1022.8R
S CRANEY ISL VA  0248   72     170/  9/ 11 1022.8R
CAPE HENRY BUOY  0230      72                N/A     2/ 5
1ST LANDING BUOY 0250   73                 1022.9R
CAPE CHARLES BUO 0251      70                N/A     2/ 8
64NM E OF VA BCH 0250   72 73  130/  8/  8 1023.6R   2/ 5   2/ 5
DUCK PIER NC     0248   72 74  130/ 11/ 13 1022.6R
44100 DUCK FRF   0205      73                N/A     2/ 5
OREGON INLET NC  0248          100/  5/  7   N/A
HATTERAS NC      0248   73 79   90/  3/  5 1022.6R
DIAMOND SHLS NC  0250   79 83  110/  6/ 10 1022.3R   2/ 7   2/ 7
CAPE LOOKOUT NC  0300   78     100/  8/  9 1022.2R
$$



USA.gov is the U.S. government's official web portal to all federal, state and local government web resources and services.